User: anonymous   Login
Location: Nairn
(57.5833°N, 3.8667°W)
Time: 11:58:25
(UTC+00:00)
Language:

FALCON 9 DEB - Orbit

View from above orbital plane
View from above orbital plane
View from above satellite
View from above satellite

Ground track
Ground track

The orbit data is extracted from the following two-line orbital elements,

1 44295U 19029BN  20293.59246012 +.00002766 +00000-0 +68401-4 0  9994
2 44295 053.0009 249.0831 0010845 101.3410 258.8814 15.44198513080676
Epoch (UTC): 19 October 2020 14:13:08
Eccentricity: 0.0010845
inclination: 53.0009°
perigee height: 426 km
apogee height: 441 km
right ascension of ascending node: 249.0831°
argument of perigee: 101.3410°
revolutions per day: 15.44198513
mean anomaly at epoch: 258.8814°
orbit number at epoch: 8067

The dashed part of the orbit path shows where the satellite is in the earth's shadow,  

DLR